Time,TemperatureF,DewpointF,PressureIn,WindDirection,WindDirectionDegrees,WindSpeedMPH,WindSpeedGustMPH,Humidity,HourlyPrecipIn,Conditions,Clouds,dailyrainin,SoftwareType,DateUTC
2013-02-17 00:02:00,44.1,12.2,30.08,SW,227,0.0,0.0,27,0.00,,,0.00,meteohub,2013-02-17 08:02:00,
2013-02-17 00:07:00,43.9,12.0,30.08,WSW,243,0.0,0.0,27,0.00,,,0.00,meteohub,2013-02-17 08:07:00,
2013-02-17 00:13:00,43.9,12.0,30.08,WSW,243,0.0,0.0,27,0.00,,,0.00,meteohub,2013-02-17 08:13:00,
2013-02-17 00:18:00,43.9,12.0,30.08,WSW,242,0.0,0.0,27,0.00,,,0.00,meteohub,2013-02-17 08:18:00,
2013-02-17 00:23:00,43.9,12.0,30.08,WSW,242,0.0,0.0,27,0.00,,,0.00,meteohub,2013-02-17 08:23:00,
2013-02-17 00:28:00,43.9,12.0,30.08,WSW,242,0.0,0.0,27,0.00,,,0.00,meteohub,2013-02-17 08:28:00,
2013-02-17 00:33:00,43.9,12.0,30.07,WSW,242,0.0,0.0,27,0.00,,,0.00,meteohub,2013-02-17 08:33:00,
2013-02-17 00:38:00,43.7,12.7,30.07,WSW,240,0.0,0.0,28,0.00,,,0.00,meteohub,2013-02-17 08:38:00,
2013-02-17 00:43:00,43.7,12.7,30.07,WSW,242,0.0,0.0,28,0.00,,,0.00,meteohub,2013-02-17 08:43:00,
2013-02-17 00:48:00,43.7,12.7,30.07,SSW,203,0.0,0.0,28,0.00,,,0.00,meteohub,2013-02-17 08:48:00,
2013-02-17 00:53:00,43.7,12.7,30.07,SW,216,0.0,0.0,28,0.00,,,0.00,meteohub,2013-02-17 08:53:00,
2013-02-17 00:58:00,43.9,12.9,30.07,SW,217,0.0,0.0,28,0.00,,,0.00,meteohub,2013-02-17 08:58:00,
2013-02-17 01:03:00,43.9,12.9,30.07,SW,224,0.0,0.0,28,0.00,,,0.00,meteohub,2013-02-17 09:03:00,
2013-02-17 01:08:00,43.9,12.9,30.07,SW,225,0.0,0.0,28,0.00,,,0.00,meteohub,2013-02-17 09:08:00,
2013-02-17 01:13:00,43.9,12.9,30.07,SW,222,0.0,0.0,28,0.00,,,0.00,meteohub,2013-02-17 09:13:00,
2013-02-17 01:18:00,43.9,12.9,30.07,SW,221,0.0,0.0,28,0.00,,,0.00,meteohub,2013-02-17 09:18:00,
2013-02-17 01:23:00,43.9,12.9,30.07,SW,218,0.0,0.0,28,0.00,,,0.00,meteohub,2013-02-17 09:23:00,
2013-02-17 01:28:00,44.1,12.2,30.06,SW,221,0.0,0.0,27,0.00,,,0.00,meteohub,2013-02-17 09:28:00,
2013-02-17 01:33:00,44.1,12.2,30.06,SW,225,0.0,0.0,27,0.00,,,0.00,meteohub,2013-02-17 09:33:00,
2013-02-17 01:38:00,44.1,12.2,30.06,SW,226,0.0,0.0,27,0.00,,,0.00,meteohub,2013-02-17 09:38:00,
2013-02-17 01:44:00,44.2,11.5,30.06,SW,222,0.0,0.0,26,0.00,,,0.00,meteohub,2013-02-17 09:44:00,
2013-02-17 01:49:00,44.1,11.3,30.06,SW,222,0.0,0.0,26,0.00,,,0.00,meteohub,2013-02-17 09:49:00,
2013-02-17 01:54:00,43.9,12.0,30.05,SW,224,0.0,0.0,27,0.00,,,0.00,meteohub,2013-02-17 09:54:00,
2013-02-17 01:59:00,43.9,12.0,30.05,South,191,0.0,0.0,27,0.00,,,0.00,meteohub,2013-02-17 09:59:00,
2013-02-17 02:04:00,43.9,12.9,30.05,SW,229,0.0,0.0,28,0.00,,,0.00,meteohub,2013-02-17 10:04:00,
2013-02-17 02:09:00,43.7,12.7,30.04,SW,233,0.0,0.0,28,0.00,,,0.00,meteohub,2013-02-17 10:09:00,
2013-02-17 02:14:00,43.5,12.6,30.04,SW,232,0.0,0.0,28,0.00,,,0.00,meteohub,2013-02-17 10:14:00,
2013-02-17 02:19:00,43.5,12.6,30.04,SW,233,0.0,0.0,28,0.00,,,0.00,meteohub,2013-02-17 10:19:00,
2013-02-17 02:24:00,43.5,12.6,30.04,SW,233,0.0,0.0,28,0.00,,,0.00,meteohub,2013-02-17 10:24:00,
2013-02-17 02:29:00,43.7,11.8,30.04,SW,231,0.0,0.0,27,0.00,,,0.00,meteohub,2013-02-17 10:29:00,
2013-02-17 02:34:00,43.7,12.7,30.04,South,174,0.0,0.0,28,0.00,,,0.00,meteohub,2013-02-17 10:34:00,
2013-02-17 02:39:00,43.5,11.7,30.04,SSW,194,0.0,0.0,27,0.00,,,0.00,meteohub,2013-02-17 10:39:00,
2013-02-17 02:44:00,43.7,11.8,30.03,South,176,0.0,0.0,27,0.00,,,0.00,meteohub,2013-02-17 10:44:00,
2013-02-17 02:49:00,43.9,12.0,30.03,South,169,0.0,0.0,27,0.00,,,0.00,meteohub,2013-02-17 10:49:00,
2013-02-17 02:54:00,44.1,12.2,30.03,SSW,205,0.0,0.0,27,0.00,,,0.00,meteohub,2013-02-17 10:54:00,
2013-02-17 03:00:00,43.9,12.0,30.03,SSW,207,0.0,0.0,27,0.00,,,0.00,meteohub,2013-02-17 11:00:00,
2013-02-17 03:05:00,43.5,11.7,30.03,SSE,148,0.0,0.0,27,0.00,,,0.00,meteohub,2013-02-17 11:05:00,
2013-02-17 03:10:00,43.7,11.8,30.03,SSW,208,0.0,0.0,27,0.00,,,0.00,meteohub,2013-02-17 11:10:00,
2013-02-17 03:15:00,43.5,11.7,30.02,South,172,0.0,0.0,27,0.00,,,0.00,meteohub,2013-02-17 11:15:00,
2013-02-17 03:20:00,43.5,12.6,30.02,SSW,198,0.0,0.0,28,0.00,,,0.00,meteohub,2013-02-17 11:20:00,
2013-02-17 03:25:00,43.5,12.6,30.02,WSW,239,0.0,0.0,28,0.00,,,0.00,meteohub,2013-02-17 11:25:00,
2013-02-17 03:30:00,43.5,11.7,30.02,South,169,0.0,0.0,27,0.00,,,0.00,meteohub,2013-02-17 11:30:00,
2013-02-17 03:35:00,43.2,11.5,30.02,SSE,162,0.0,0.0,27,0.00,,,0.00,meteohub,2013-02-17 11:35:00,
2013-02-17 03:40:00,43.2,11.5,30.01,SSW,198,0.0,0.0,27,0.00,,,0.00,meteohub,2013-02-17 11:40:00,
2013-02-17 03:45:00,42.6,11.8,30.02,SW,222,0.0,0.0,28,0.00,,,0.00,meteohub,2013-02-17 11:45:00,
2013-02-17 03:50:00,42.4,12.4,30.01,SW,223,0.0,0.0,29,0.00,,,0.00,meteohub,2013-02-17 11:50:00,
2013-02-17 03:55:00,42.4,11.7,30.01,SW,214,0.0,0.0,28,0.00,,,0.00,meteohub,2013-02-17 11:55:00,
2013-02-17 04:00:00,42.4,12.4,30.01,SW,218,0.0,0.0,29,0.00,,,0.00,meteohub,2013-02-17 12:00:00,
2013-02-17 04:05:00,42.4,12.4,30.01,South,172,0.0,0.0,29,0.00,,,0.00,meteohub,2013-02-17 12:05:00,
2013-02-17 04:10:00,42.6,12.6,30.01,WSW,240,0.0,0.0,29,0.00,,,0.00,meteohub,2013-02-17 12:10:00,
2013-02-17 04:15:00,42.4,14.0,30.01,SW,232,0.0,0.0,31,0.00,,,0.00,meteohub,2013-02-17 12:15:00,
2013-02-17 04:20:00,42.3,13.1,30.01,South,186,2.0,2.0,30,0.00,,,0.00,meteohub,2013-02-17 12:20:00,
2013-02-17 04:25:00,42.4,12.4,30.01,SE,138,2.0,3.0,29,0.00,,,0.00,meteohub,2013-02-17 12:25:00,
2013-02-17 04:30:00,42.6,11.8,30.01,SSE,148,2.0,4.0,28,0.00,,,0.00,meteohub,2013-02-17 12:30:00,
2013-02-17 04:36:00,43.0,12.0,30.01,SW,221,2.0,4.0,28,0.00,,,0.00,meteohub,2013-02-17 12:36:00,
2013-02-17 04:41:00,43.2,12.2,30.01,South,180,3.0,7.0,28,0.00,,,0.00,meteohub,2013-02-17 12:41:00,
2013-02-17 04:46:00,43.2,12.2,30.01,SSW,208,1.0,7.0,28,0.00,,,0.00,meteohub,2013-02-17 12:46:00,
2013-02-17 04:51:00,43.0,12.9,30.00,SSW,213,2.0,7.0,29,0.00,,,0.00,meteohub,2013-02-17 12:51:00,
2013-02-17 04:56:00,43.0,12.0,30.01,SE,134,2.0,4.0,28,0.00,,,0.00,meteohub,2013-02-17 12:56:00,
2013-02-17 05:01:00,42.6,12.6,30.01,SSW,199,1.0,4.0,29,0.00,,,0.00,meteohub,2013-02-17 13:01:00,
2013-02-17 05:06:00,42.3,12.2,30.00,SE,141,1.0,4.0,29,0.00,,,0.00,meteohub,2013-02-17 13:06:00,
2013-02-17 05:11:00,42.3,12.2,30.00,SW,225,2.0,3.0,29,0.00,,,0.00,meteohub,2013-02-17 13:11:00,
2013-02-17 05:16:00,42.3,13.1,30.00,SW,222,1.0,4.0,30,0.00,,,0.00,meteohub,2013-02-17 13:16:00,
2013-02-17 05:21:00,42.1,12.9,30.00,SSE,152,2.0,5.0,30,0.00,,,0.00,meteohub,2013-02-17 13:21:00,
2013-02-17 05:26:00,42.1,12.0,30.00,SSE,155,4.0,5.0,29,0.00,,,0.00,meteohub,2013-02-17 13:26:00,
2013-02-17 05:31:00,42.3,12.2,30.01,ESE,114,0.0,5.0,29,0.00,,,0.00,meteohub,2013-02-17 13:31:00,
2013-02-17 05:36:00,42.4,12.4,30.00,South,186,1.0,7.0,29,0.00,,,0.00,meteohub,2013-02-17 13:36:00,
2013-02-17 05:41:00,42.4,12.4,30.01,South,172,1.0,7.0,29,0.00,,,0.00,meteohub,2013-02-17 13:41:00,
2013-02-17 05:46:00,42.4,13.1,30.00,SW,224,1.0,7.0,30,0.00,,,0.00,meteohub,2013-02-17 13:46:00,
2013-02-17 05:51:00,42.3,13.8,30.01,SW,221,3.0,6.0,31,0.00,,,0.00,meteohub,2013-02-17 13:51:00,
2013-02-17 05:57:00,41.9,13.5,30.01,SE,143,2.0,6.0,31,0.00,,,0.00,meteohub,2013-02-17 13:57:00,
2013-02-17 06:02:00,42.1,13.6,30.01,West,266,1.0,8.0,31,0.00,,,0.00,meteohub,2013-02-17 14:02:00,
2013-02-17 06:07:00,41.9,12.7,30.01,WSW,238,4.0,8.0,30,0.00,,,0.00,meteohub,2013-02-17 14:07:00,
2013-02-17 06:12:00,41.9,13.5,30.00,SE,127,3.0,8.0,31,0.00,,,0.00,meteohub,2013-02-17 14:12:00,
2013-02-17 06:17:00,41.5,14.5,30.00,SW,217,1.0,7.0,33,0.00,,,0.00,meteohub,2013-02-17 14:17:00,
2013-02-17 06:22:00,41.2,14.2,30.01,SSE,148,3.0,7.0,33,0.00,,,0.00,meteohub,2013-02-17 14:22:00,
2013-02-17 06:27:00,41.2,14.2,30.00,WSW,240,2.0,7.0,33,0.00,,,0.00,meteohub,2013-02-17 14:27:00,
2013-02-17 06:32:00,41.0,14.0,30.00,SW,214,2.0,5.0,33,0.00,,,0.00,meteohub,2013-02-17 14:32:00,
2013-02-17 06:37:00,40.6,13.1,30.01,SW,218,1.0,5.0,32,0.00,,,0.00,meteohub,2013-02-17 14:37:00,
2013-02-17 06:42:00,40.6,13.1,30.01,SE,127,1.0,5.0,32,0.00,,,0.00,meteohub,2013-02-17 14:42:00,
2013-02-17 06:47:00,40.6,12.4,30.00,SSW,194,0.0,5.0,31,0.00,,,0.00,meteohub,2013-02-17 14:47:00,
2013-02-17 06:52:00,40.5,12.9,30.00,South,172,0.0,5.0,32,0.00,,,0.00,meteohub,2013-02-17 14:52:00,
2013-02-17 06:57:00,40.8,14.5,30.00,South,184,0.0,5.0,34,0.00,,,0.00,meteohub,2013-02-17 14:57:00,
2013-02-17 07:02:00,41.5,13.1,30.00,South,188,0.0,4.0,31,0.00,,,0.00,meteohub,2013-02-17 15:02:00,
2013-02-17 07:07:00,42.3,14.5,30.01,SSW,203,0.0,4.0,32,0.00,,,0.00,meteohub,2013-02-17 15:07:00,
2013-02-17 07:12:00,42.3,13.1,30.01,SW,236,1.0,2.0,30,0.00,,,0.00,meteohub,2013-02-17 15:12:00,
2013-02-17 07:17:00,43.0,14.4,30.01,SW,228,1.0,2.0,31,0.00,,,0.00,meteohub,2013-02-17 15:17:00,
2013-02-17 07:22:00,43.2,14.5,30.01,SSW,193,0.0,2.0,31,0.00,,,0.00,meteohub,2013-02-17 15:22:00,
2013-02-17 07:28:00,44.1,13.8,30.01,SW,225,1.0,2.0,29,0.00,,,0.00,meteohub,2013-02-17 15:28:00,
2013-02-17 07:33:00,44.4,13.3,30.00,WSW,257,1.0,2.0,28,0.00,,,0.00,meteohub,2013-02-17 15:33:00,
2013-02-17 07:38:00,45.7,13.6,30.00,SW,222,0.0,2.0,27,0.00,,,0.00,meteohub,2013-02-17 15:38:00,
2013-02-17 07:43:00,46.6,15.3,30.01,SSW,212,0.0,2.0,28,0.00,,,0.00,meteohub,2013-02-17 15:43:00,
2013-02-17 07:48:00,46.6,14.4,30.00,WSW,241,0.0,4.0,27,0.00,,,0.00,meteohub,2013-02-17 15:48:00,
2013-02-17 07:53:00,47.1,15.6,30.00,ESE,102,0.0,4.0,28,0.00,,,0.00,meteohub,2013-02-17 15:53:00,
2013-02-17 07:58:00,47.5,15.1,30.00,SW,217,0.0,2.0,27,0.00,,,0.00,meteohub,2013-02-17 15:58:00,
2013-02-17 08:03:00,47.8,11.8,30.01,WSW,253,2.0,2.0,23,0.00,,,0.00,meteohub,2013-02-17 16:03:00,
2013-02-17 08:08:00,48.0,14.7,30.01,NNE,12,0.0,6.0,26,0.00,,,0.00,meteohub,2013-02-17 16:08:00,
2013-02-17 08:13:00,48.7,14.5,30.01,ESE,121,0.0,6.0,25,0.00,,,0.00,meteohub,2013-02-17 16:13:00,
2013-02-17 08:18:00,50.2,14.7,30.01,South,181,0.0,6.0,24,0.00,,,0.00,meteohub,2013-02-17 16:18:00,
2013-02-17 08:23:00,50.9,14.4,30.01,SSE,150,0.0,2.0,23,0.00,,,0.00,meteohub,2013-02-17 16:23:00,
2013-02-17 08:28:00,51.4,16.7,30.01,ESE,104,1.0,3.0,25,0.00,,,0.00,meteohub,2013-02-17 16:28:00,
2013-02-17 08:33:00,52.0,16.3,30.00,ESE,110,0.0,3.0,24,0.00,,,0.00,meteohub,2013-02-17 16:33:00,
2013-02-17 08:38:00,52.5,17.8,30.00,SE,127,0.0,3.0,25,0.00,,,0.00,meteohub,2013-02-17 16:38:00,
2013-02-17 08:43:00,52.9,17.1,30.00,SSE,156,0.0,2.0,24,0.00,,,0.00,meteohub,2013-02-17 16:43:00,
2013-02-17 08:49:00,52.5,15.8,30.00,SW,228,0.0,2.0,23,0.00,,,0.00,meteohub,2013-02-17 16:49:00,
2013-02-17 08:54:00,52.0,16.3,30.01,SSE,153,1.0,3.0,24,0.00,,,0.00,meteohub,2013-02-17 16:54:00,
2013-02-17 08:59:00,52.5,14.7,30.00,SW,219,2.0,4.0,22,0.00,,,0.00,meteohub,2013-02-17 16:59:00,
2013-02-17 09:04:00,52.2,13.5,30.00,South,187,1.0,4.0,21,0.00,,,0.00,meteohub,2013-02-17 17:04:00,
2013-02-17 09:09:00,52.0,15.3,30.00,WSW,240,2.0,4.0,23,0.00,,,0.00,meteohub,2013-02-17 17:09:00,
2013-02-17 09:14:00,51.8,13.1,30.00,ESE,120,3.0,4.0,21,0.00,,,0.00,meteohub,2013-02-17 17:14:00,
2013-02-17 09:19:00,51.8,16.2,30.00,ESE,115,0.0,8.0,24,0.00,,,0.00,meteohub,2013-02-17 17:19:00,
2013-02-17 09:24:00,52.0,13.3,30.01,SE,142,2.0,8.0,21,0.00,,,0.00,meteohub,2013-02-17 17:24:00,
2013-02-17 09:29:00,52.2,14.4,30.00,WSW,248,5.0,8.0,22,0.00,,,0.00,meteohub,2013-02-17 17:29:00,
2013-02-17 09:34:00,52.0,15.3,30.00,East,99,3.0,6.0,23,0.00,,,0.00,meteohub,2013-02-17 17:34:00,
2013-02-17 09:39:00,52.0,16.3,30.01,South,174,1.0,6.0,24,0.00,,,0.00,meteohub,2013-02-17 17:39:00,
2013-02-17 09:44:00,52.2,20.8,30.01,SSW,193,3.0,6.0,29,0.00,,,0.00,meteohub,2013-02-17 17:44:00,
2013-02-17 09:49:00,52.3,17.6,30.01,SW,232,0.0,6.0,25,0.00,,,0.00,meteohub,2013-02-17 17:49:00,
2013-02-17 09:54:00,52.0,15.3,30.01,West,269,1.0,5.0,23,0.00,,,0.00,meteohub,2013-02-17 17:54:00,
2013-02-17 09:59:00,52.2,16.5,30.01,East,92,2.0,6.0,24,0.00,,,0.00,meteohub,2013-02-17 17:59:00,
2013-02-17 10:05:00,52.2,16.5,30.01,ESE,115,1.0,6.0,24,0.00,,,0.00,meteohub,2013-02-17 18:05:00,
2013-02-17 10:10:00,52.3,17.6,30.00,SSE,148,0.0,6.0,25,0.00,,,0.00,meteohub,2013-02-17 18:10:00,
2013-02-17 10:15:00,52.5,16.7,30.00,SE,124,1.0,6.0,24,0.00,,,0.00,meteohub,2013-02-17 18:15:00,
2013-02-17 10:20:00,52.2,16.5,30.00,South,173,1.0,6.0,24,0.00,,,0.00,meteohub,2013-02-17 18:20:00,
2013-02-17 10:25:00,52.0,19.0,30.00,SSE,153,2.0,5.0,27,0.00,,,0.00,meteohub,2013-02-17 18:25:00,
2013-02-17 10:30:00,52.2,17.4,30.00,SSW,194,0.0,5.0,25,0.00,,,0.00,meteohub,2013-02-17 18:30:00,
2013-02-17 10:35:00,52.7,19.6,30.00,WNW,284,0.0,5.0,27,0.00,,,0.00,meteohub,2013-02-17 18:35:00,
2013-02-17 10:40:00,53.2,18.3,30.00,South,187,2.0,4.0,25,0.00,,,0.00,meteohub,2013-02-17 18:40:00,
2013-02-17 10:45:00,52.9,21.6,30.00,ENE,67,0.0,5.0,29,0.00,,,0.00,meteohub,2013-02-17 18:45:00,
2013-02-17 10:50:00,53.2,18.3,30.00,SSE,158,2.0,5.0,25,0.00,,,0.00,meteohub,2013-02-17 18:50:00,
2013-02-17 10:55:00,52.9,19.8,30.00,South,178,1.0,5.0,27,0.00,,,0.00,meteohub,2013-02-17 18:55:00,
2013-02-17 11:00:00,52.7,18.7,30.00,SW,219,1.0,5.0,26,0.00,,,0.00,meteohub,2013-02-17 19:00:00,
2013-02-17 11:05:00,53.1,19.9,30.00,South,190,2.0,5.0,27,0.00,,,0.00,meteohub,2013-02-17 19:05:00,
2013-02-17 11:10:00,52.9,20.7,30.00,SW,219,2.0,5.0,28,0.00,,,0.00,meteohub,2013-02-17 19:10:00,
2013-02-17 11:15:00,52.9,22.3,30.00,SE,138,1.0,5.0,30,0.00,,,0.00,meteohub,2013-02-17 19:15:00,
2013-02-17 11:20:00,53.2,22.6,30.00,SSE,162,2.0,6.0,30,0.00,,,0.00,meteohub,2013-02-17 19:20:00,
2013-02-17 11:26:00,53.4,21.9,29.99,SSE,160,2.0,6.0,29,0.00,,,0.00,meteohub,2013-02-17 19:26:00,
2013-02-17 11:31:00,53.2,21.7,29.99,ENE,70,1.0,6.0,29,0.00,,,0.00,meteohub,2013-02-17 19:31:00,
2013-02-17 11:36:00,53.1,21.6,29.99,East,95,5.0,6.0,29,0.00,,,0.00,meteohub,2013-02-17 19:36:00,
2013-02-17 11:41:00,52.0,22.3,29.99,SSE,148,1.0,8.0,31,0.00,,,0.00,meteohub,2013-02-17 19:41:00,
2013-02-17 11:46:00,51.6,21.2,29.99,ESE,111,4.0,9.0,30,0.00,,,0.00,meteohub,2013-02-17 19:46:00,
2013-02-17 11:51:00,51.3,22.5,29.99,ESE,106,5.0,9.0,32,0.00,,,0.00,meteohub,2013-02-17 19:51:00,
2013-02-17 11:56:00,50.9,22.8,29.99,East,95,4.0,9.0,33,0.00,,,0.00,meteohub,2013-02-17 19:56:00,
2013-02-17 12:01:00,51.3,23.2,29.98,ENE,67,2.0,9.0,33,0.00,,,0.00,meteohub,2013-02-17 20:01:00,
2013-02-17 12:06:00,51.8,24.3,29.99,SSW,203,2.0,9.0,34,0.00,,,0.00,meteohub,2013-02-17 20:06:00,
2013-02-17 12:11:00,52.3,22.6,29.98,SSW,203,2.0,7.0,31,0.00,,,0.00,meteohub,2013-02-17 20:11:00,
2013-02-17 12:16:00,52.3,21.7,29.98,SE,142,1.0,7.0,30,0.00,,,0.00,meteohub,2013-02-17 20:16:00,
2013-02-17 12:22:00,52.3,21.7,29.98,SSW,210,3.0,8.0,30,0.00,,,0.00,meteohub,2013-02-17 20:22:00,
2013-02-17 12:27:00,52.3,21.7,29.97,East,80,3.0,9.0,30,0.00,,,0.00,meteohub,2013-02-17 20:27:00,
2013-02-17 12:32:00,51.8,22.1,29.97,ESE,111,3.0,9.0,31,0.00,,,0.00,meteohub,2013-02-17 20:32:00,
2013-02-17 12:37:00,52.2,23.2,29.97,SSW,198,2.0,8.0,32,0.00,,,0.00,meteohub,2013-02-17 20:37:00,
2013-02-17 12:42:00,52.3,23.4,29.97,ESE,117,4.0,10.0,32,0.00,,,0.00,meteohub,2013-02-17 20:42:00,
2013-02-17 12:47:00,51.6,21.2,29.98,South,190,2.0,10.0,30,0.00,,,0.00,meteohub,2013-02-17 20:47:00,
2013-02-17 12:52:00,51.6,21.9,29.97,SE,136,1.0,9.0,31,0.00,,,0.00,meteohub,2013-02-17 20:52:00,
2013-02-17 12:57:00,51.4,21.7,29.97,SE,124,5.0,9.0,31,0.00,,,0.00,meteohub,2013-02-17 20:57:00,
2013-02-17 13:02:00,51.4,21.7,29.97,ESE,105,5.0,10.0,31,0.00,,,0.00,meteohub,2013-02-17 21:02:00,
2013-02-17 13:07:00,51.3,21.6,29.97,SSE,158,3.0,10.0,31,0.00,,,0.00,meteohub,2013-02-17 21:07:00,
2013-02-17 13:12:00,51.1,22.3,29.97,ENE,60,4.0,10.0,32,0.00,,,0.00,meteohub,2013-02-17 21:12:00,
2013-02-17 13:17:00,51.1,22.3,29.97,SE,134,3.0,9.0,32,0.00,,,0.00,meteohub,2013-02-17 21:17:00,
2013-02-17 13:22:00,50.9,22.8,29.96,East,82,4.0,9.0,33,0.00,,,0.00,meteohub,2013-02-17 21:22:00,
2013-02-17 13:27:00,50.9,22.1,29.96,SSE,160,7.0,8.0,32,0.00,,,0.00,meteohub,2013-02-17 21:27:00,
2013-02-17 13:32:00,50.7,21.9,29.96,SE,132,4.0,9.0,32,0.00,,,0.00,meteohub,2013-02-17 21:32:00,
2013-02-17 13:37:00,51.1,22.3,29.96,South,172,5.0,9.0,32,0.00,,,0.00,meteohub,2013-02-17 21:37:00,
2013-02-17 13:42:00,51.3,21.6,29.96,SSW,193,1.0,9.0,31,0.00,,,0.00,meteohub,2013-02-17 21:42:00,
2013-02-17 13:47:00,51.4,23.4,29.96,SSE,156,5.0,8.0,33,0.00,,,0.00,meteohub,2013-02-17 21:47:00,
2013-02-17 13:52:00,51.4,21.7,29.96,SE,130,3.0,8.0,31,0.00,,,0.00,meteohub,2013-02-17 21:52:00,
2013-02-17 13:57:00,50.7,21.2,29.96,ESE,114,6.0,7.0,31,0.00,,,0.00,meteohub,2013-02-17 21:57:00,
2013-02-17 14:02:00,50.5,21.0,29.96,SE,138,2.0,8.0,31,0.00,,,0.00,meteohub,2013-02-17 22:02:00,
2013-02-17 14:07:00,50.5,21.0,29.96,East,94,4.0,9.0,31,0.00,,,0.00,meteohub,2013-02-17 22:07:00,
2013-02-17 14:12:00,50.5,21.7,29.96,SE,124,0.0,11.0,32,0.00,,,0.00,meteohub,2013-02-17 22:12:00,
2013-02-17 14:17:00,50.7,21.9,29.96,ENE,71,3.0,11.0,32,0.00,,,0.00,meteohub,2013-02-17 22:17:00,
2013-02-17 14:22:00,50.7,21.2,29.96,ESE,121,1.0,11.0,31,0.00,,,0.00,meteohub,2013-02-17 22:22:00,
2013-02-17 14:27:00,51.1,21.6,29.96,South,181,4.0,10.0,31,0.00,,,0.00,meteohub,2013-02-17 22:27:00,
2013-02-17 14:32:00,51.1,21.6,29.96,SE,132,2.0,10.0,31,0.00,,,0.00,meteohub,2013-02-17 22:32:00,
2013-02-17 14:37:00,50.4,20.8,29.96,SSE,160,4.0,8.0,31,0.00,,,0.00,meteohub,2013-02-17 22:37:00,
2013-02-17 14:42:00,49.8,21.2,29.97,SSE,148,2.0,9.0,32,0.00,,,0.00,meteohub,2013-02-17 22:42:00,
2013-02-17 14:47:00,49.6,21.7,29.97,ESE,120,4.0,9.0,33,0.00,,,0.00,meteohub,2013-02-17 22:47:00,
2013-02-17 14:52:00,49.3,22.1,29.97,ENE,77,3.0,10.0,34,0.00,,,0.00,meteohub,2013-02-17 22:52:00,
2013-02-17 14:57:00,49.6,22.5,29.97,SE,141,1.0,10.0,34,0.00,,,0.00,meteohub,2013-02-17 22:57:00,
2013-02-17 15:02:00,49.6,21.0,29.97,East,97,4.0,10.0,32,0.00,,,0.00,meteohub,2013-02-17 23:02:00,
2013-02-17 15:08:00,49.3,21.4,29.97,South,172,3.0,7.0,33,0.00,,,0.00,meteohub,2013-02-17 23:08:00,
2013-02-17 15:13:00,49.1,21.2,29.97,SE,143,1.0,7.0,33,0.00,,,0.00,meteohub,2013-02-17 23:13:00,
2013-02-17 15:18:00,49.3,21.4,29.97,SSE,159,1.0,7.0,33,0.00,,,0.00,meteohub,2013-02-17 23:18:00,
2013-02-17 15:23:00,49.1,21.9,29.97,SSE,159,5.0,7.0,34,0.00,,,0.00,meteohub,2013-02-17 23:23:00,
2013-02-17 15:28:00,48.7,20.8,29.98,SSW,201,2.0,7.0,33,0.00,,,0.00,meteohub,2013-02-17 23:28:00,
2013-02-17 15:33:00,48.6,20.8,29.98,SSW,194,3.0,8.0,33,0.00,,,0.00,meteohub,2013-02-17 23:33:00,
2013-02-17 15:38:00,48.0,21.0,29.98,SE,146,3.0,8.0,34,0.00,,,0.00,meteohub,2013-02-17 23:38:00,
2013-02-17 15:43:00,47.7,21.4,29.98,SSE,153,2.0,8.0,35,0.00,,,0.00,meteohub,2013-02-17 23:43:00,
2013-02-17 15:48:00,47.5,21.2,29.98,SW,214,1.0,8.0,35,0.00,,,0.00,meteohub,2013-02-17 23:48:00,
2013-02-17 15:53:00,47.3,21.0,29.98,East,81,4.0,7.0,35,0.00,,,0.00,meteohub,2013-02-17 23:53:00,
2013-02-17 15:58:00,47.1,20.8,29.98,ESE,114,4.0,7.0,35,0.00,,,0.00,meteohub,2013-02-17 23:58:00,
2013-02-17 16:03:00,46.8,21.2,29.98,SW,221,2.0,7.0,36,0.00,,,0.00,meteohub,2013-02-18 00:03:00,
2013-02-17 16:08:00,46.6,21.7,29.98,South,187,6.0,9.0,37,0.00,,,0.00,meteohub,2013-02-18 00:08:00,
2013-02-17 16:13:00,46.4,21.6,29.98,SSE,152,5.0,9.0,37,0.00,,,0.00,meteohub,2013-02-18 00:13:00,
2013-02-17 16:18:00,46.2,21.9,29.98,SW,229,1.0,10.0,38,0.00,,,0.00,meteohub,2013-02-18 00:18:00,
2013-02-17 16:23:00,45.9,22.3,29.98,ESE,102,5.0,10.0,39,0.00,,,0.00,meteohub,2013-02-18 00:23:00,
2013-02-17 16:28:00,45.7,22.1,29.98,SE,132,2.0,10.0,39,0.00,,,0.00,meteohub,2013-02-18 00:28:00,
2013-02-17 16:33:00,45.3,22.5,29.98,SSW,211,2.0,7.0,40,0.00,,,0.00,meteohub,2013-02-18 00:33:00,
2013-02-17 16:38:00,45.1,23.4,29.98,WSW,256,0.0,7.0,42,0.00,,,0.00,meteohub,2013-02-18 00:38:00,
2013-02-17 16:44:00,45.0,22.6,29.98,SE,141,1.0,7.0,41,0.00,,,0.00,meteohub,2013-02-18 00:44:00,
2013-02-17 16:49:00,44.8,23.0,29.98,SW,219,4.0,6.0,42,0.00,,,0.00,meteohub,2013-02-18 00:49:00,
2013-02-17 16:54:00,44.4,22.8,29.98,SE,141,2.0,8.0,42,0.00,,,0.00,meteohub,2013-02-18 00:54:00,
2013-02-17 16:59:00,44.2,23.2,29.98,South,177,4.0,8.0,43,0.00,,,0.00,meteohub,2013-02-18 00:59:00,
2013-02-17 17:04:00,44.1,23.5,29.99,SSE,148,2.0,8.0,44,0.00,,,0.00,meteohub,2013-02-18 01:04:00,
2013-02-17 17:09:00,43.7,23.7,29.98,SSW,211,1.0,8.0,45,0.00,,,0.00,meteohub,2013-02-18 01:09:00,
2013-02-17 17:14:00,43.3,23.9,29.98,ESE,102,0.0,8.0,46,0.00,,,0.00,meteohub,2013-02-18 01:14:00,
2013-02-17 17:19:00,43.2,24.3,29.99,South,177,4.0,8.0,47,0.00,,,0.00,meteohub,2013-02-18 01:19:00,
2013-02-17 17:24:00,42.8,25.5,29.98,SSW,212,0.0,8.0,50,0.00,,,0.00,meteohub,2013-02-18 01:24:00,
2013-02-17 17:29:00,42.4,25.5,29.99,East,94,3.0,8.0,51,0.00,,,0.00,meteohub,2013-02-18 01:29:00,
2013-02-17 17:34:00,42.4,26.1,29.99,ESE,111,4.0,8.0,52,0.00,,,0.00,meteohub,2013-02-18 01:34:00,
2013-02-17 17:39:00,42.1,26.6,29.99,ESE,115,2.0,7.0,54,0.00,,,0.00,meteohub,2013-02-18 01:39:00,
2013-02-17 17:44:00,42.1,27.1,29.99,SE,132,4.0,6.0,55,0.00,,,0.00,meteohub,2013-02-18 01:44:00,
2013-02-17 17:49:00,42.1,27.1,29.99,South,181,3.0,8.0,55,0.00,,,0.00,meteohub,2013-02-18 01:49:00,
2013-02-17 17:54:00,41.7,27.7,29.99,SE,139,4.0,13.0,57,0.00,,,0.00,meteohub,2013-02-18 01:54:00,
2013-02-17 18:00:00,41.5,29.1,29.99,East,94,3.0,13.0,61,0.00,,,0.00,meteohub,2013-02-18 02:00:00,
2013-02-17 18:05:00,41.5,29.5,29.99,SSE,148,1.0,10.0,62,0.00,,,0.00,meteohub,2013-02-18 02:05:00,
2013-02-17 18:10:00,41.4,30.0,29.99,SE,129,6.0,10.0,64,0.00,,,0.00,meteohub,2013-02-18 02:10:00,
2013-02-17 18:15:00,41.2,31.5,29.99,SSE,149,7.0,11.0,68,0.00,,,0.00,meteohub,2013-02-18 02:15:00,
2013-02-17 18:20:00,41.0,31.3,29.99,ESE,107,5.0,11.0,68,0.00,,,0.00,meteohub,2013-02-18 02:20:00,
2013-02-17 18:25:00,41.4,28.0,30.00,ESE,104,5.0,11.0,59,0.00,,,0.00,meteohub,2013-02-18 02:25:00,
2013-02-17 18:30:00,41.9,27.0,29.99,SW,225,9.0,12.0,55,0.00,,,0.00,meteohub,2013-02-18 02:30:00,
2013-02-17 18:35:00,42.1,26.6,30.00,SE,141,3.0,12.0,54,0.00,,,0.00,meteohub,2013-02-18 02:35:00,
2013-02-17 18:40:00,42.3,25.9,30.00,ESE,122,3.0,11.0,52,0.00,,,0.00,meteohub,2013-02-18 02:40:00,
2013-02-17 18:45:00,42.3,25.3,30.00,SE,136,4.0,10.0,51,0.00,,,0.00,meteohub,2013-02-18 02:45:00,
2013-02-17 18:50:00,42.3,25.0,30.00,South,183,6.0,10.0,50,0.00,,,0.00,meteohub,2013-02-18 02:50:00,
2013-02-17 18:56:00,42.3,24.4,30.00,South,172,4.0,10.0,49,0.00,,,0.00,meteohub,2013-02-18 02:56:00,
2013-02-17 19:01:00,42.3,24.4,30.00,SE,131,4.0,11.0,49,0.00,,,0.00,meteohub,2013-02-18 03:01:00,
2013-02-17 19:06:00,42.3,24.4,30.00,SSE,163,5.0,11.0,49,0.00,,,0.00,meteohub,2013-02-18 03:06:00,
2013-02-17 19:11:00,42.3,25.3,30.00,ESE,119,2.0,11.0,51,0.00,,,0.00,meteohub,2013-02-18 03:11:00,
2013-02-17 19:16:00,42.3,25.3,30.00,SSE,159,2.0,11.0,51,0.00,,,0.00,meteohub,2013-02-18 03:16:00,
2013-02-17 19:21:00,42.3,25.3,30.00,ESE,105,7.0,11.0,51,0.00,,,0.00,meteohub,2013-02-18 03:21:00,
2013-02-17 19:26:00,42.1,25.7,30.00,ESE,115,2.0,11.0,52,0.00,,,0.00,meteohub,2013-02-18 03:26:00,
2013-02-17 19:31:00,42.3,25.9,30.00,SE,134,1.0,11.0,52,0.00,,,0.00,meteohub,2013-02-18 03:31:00,
2013-02-17 19:36:00,42.1,25.7,30.00,SE,135,4.0,12.0,52,0.00,,,0.00,meteohub,2013-02-18 03:36:00,
2013-02-17 19:41:00,42.1,25.7,30.00,South,180,2.0,12.0,52,0.00,,,0.00,meteohub,2013-02-18 03:41:00,
2013-02-17 19:46:00,42.1,25.3,30.00,SSW,197,2.0,11.0,51,0.00,,,0.00,meteohub,2013-02-18 03:46:00,
2013-02-17 19:51:00,41.9,25.5,30.01,ESE,120,4.0,10.0,52,0.00,,,0.00,meteohub,2013-02-18 03:51:00,
2013-02-17 19:57:00,41.9,25.5,30.00,ESE,110,3.0,10.0,52,0.00,,,0.00,meteohub,2013-02-18 03:57:00,
2013-02-17 20:02:00,41.7,25.3,30.01,West,272,1.0,10.0,52,0.00,,,0.00,meteohub,2013-02-18 04:02:00,
2013-02-17 20:07:00,41.7,25.9,30.01,SSW,208,3.0,9.0,53,0.00,,,0.00,meteohub,2013-02-18 04:07:00,
2013-02-17 20:12:00,41.4,25.9,30.01,SW,231,2.0,9.0,54,0.00,,,0.00,meteohub,2013-02-18 04:12:00,
2013-02-17 20:17:00,41.2,25.9,30.01,SSE,158,2.0,8.0,54,0.00,,,0.00,meteohub,2013-02-18 04:17:00,
2013-02-17 20:22:00,41.4,25.5,30.01,SSE,160,2.0,8.0,53,0.00,,,0.00,meteohub,2013-02-18 04:22:00,
2013-02-17 20:27:00,41.2,24.8,30.02,NW,315,2.0,8.0,52,0.00,,,0.00,meteohub,2013-02-18 04:27:00,
2013-02-17 20:32:00,41.0,24.8,30.02,SSW,208,3.0,8.0,52,0.00,,,0.00,meteohub,2013-02-18 04:32:00,
2013-02-17 20:37:00,40.8,24.6,30.02,WSW,241,2.0,6.0,52,0.00,,,0.00,meteohub,2013-02-18 04:37:00,
2013-02-17 20:42:00,41.2,23.5,30.02,WSW,245,2.0,6.0,49,0.00,,,0.00,meteohub,2013-02-18 04:42:00,
2013-02-17 20:47:00,41.2,23.9,30.03,SSW,211,1.0,7.0,50,0.00,,,0.00,meteohub,2013-02-18 04:47:00,
2013-02-17 20:52:00,40.8,23.5,30.03,SW,225,2.0,7.0,50,0.00,,,0.00,meteohub,2013-02-18 04:52:00,
2013-02-17 20:57:00,40.3,24.1,30.03,WSW,250,1.0,4.0,52,0.00,,,0.00,meteohub,2013-02-18 04:57:00,
2013-02-17 21:00:00,40.1,24.3,30.04,WSW,243,2.0,4.0,53,0.00,,,0.00,meteohub,2013-02-18 05:00:00,
2013-02-17 21:01:00,39.9,23.7,30.04,WSW,243,1.0,4.0,52,0.00,,,0.00,meteohub,2013-02-18 05:01:00,
2013-02-17 21:02:00,39.9,23.7,30.04,SW,233,1.0,4.0,52,0.00,,,0.00,meteohub,2013-02-18 05:02:00,
2013-02-17 21:03:00,39.9,23.2,30.04,SSW,211,1.0,4.0,51,0.00,,,0.00,meteohub,2013-02-18 05:03:00,
2013-02-17 21:08:00,39.7,24.1,30.04,SW,224,0.0,2.0,53,0.00,,,0.00,meteohub,2013-02-18 05:08:00,
2013-02-17 21:13:00,39.4,23.2,30.04,SW,224,0.0,2.0,52,0.00,,,0.00,meteohub,2013-02-18 05:13:00,
2013-02-17 21:18:00,39.4,22.8,30.05,SW,224,0.0,2.0,51,0.00,,,0.00,meteohub,2013-02-18 05:18:00,
2013-02-17 21:23:00,39.4,22.8,30.05,SW,231,0.0,1.0,51,0.00,,,0.00,meteohub,2013-02-18 05:23:00,
2013-02-17 21:28:00,39.2,22.1,30.05,SW,231,0.0,1.0,50,0.00,,,0.00,meteohub,2013-02-18 05:28:00,
2013-02-17 21:33:00,38.8,22.6,30.05,SW,229,0.0,0.0,52,0.00,,,0.00,meteohub,2013-02-18 05:33:00,
2013-02-17 21:38:00,38.8,22.6,30.05,SW,231,0.0,0.0,52,0.00,,,0.00,meteohub,2013-02-18 05:38:00,
2013-02-17 21:43:00,39.0,22.5,30.05,SW,231,0.0,0.0,51,0.00,,,0.00,meteohub,2013-02-18 05:43:00,
2013-02-17 21:48:00,39.2,21.6,30.05,SW,231,0.0,0.0,49,0.00,,,0.00,meteohub,2013-02-18 05:48:00,
2013-02-17 21:53:00,39.4,21.7,30.05,SW,229,0.0,0.0,49,0.00,,,0.00,meteohub,2013-02-18 05:53:00,
2013-02-17 21:58:00,39.6,21.6,30.06,SW,229,0.0,0.0,48,0.00,,,0.00,meteohub,2013-02-18 05:58:00,
2013-02-17 22:03:00,39.9,21.4,30.06,SW,231,0.0,0.0,47,0.00,,,0.00,meteohub,2013-02-18 06:03:00,
2013-02-17 22:08:00,39.9,20.8,30.06,SW,231,0.0,0.0,46,0.00,,,0.00,meteohub,2013-02-18 06:08:00,
2013-02-17 22:13:00,40.1,20.5,30.06,SSE,158,0.0,0.0,45,0.00,,,0.00,meteohub,2013-02-18 06:13:00,
2013-02-17 22:19:00,40.1,20.5,30.06,SSE,162,0.0,0.0,45,0.00,,,0.00,meteohub,2013-02-18 06:19:00,
2013-02-17 22:24:00,40.3,19.6,30.06,SE,138,0.0,0.0,43,0.00,,,0.00,meteohub,2013-02-18 06:24:00,
2013-02-17 22:29:00,40.3,18.5,30.06,SSE,156,1.0,1.0,41,0.00,,,0.00,meteohub,2013-02-18 06:29:00,
2013-02-17 22:34:00,40.5,18.0,30.06,ESE,120,0.0,1.0,40,0.00,,,0.00,meteohub,2013-02-18 06:34:00,
2013-02-17 22:39:00,40.3,18.0,30.06,SE,127,0.0,1.0,40,0.00,,,0.00,meteohub,2013-02-18 06:39:00,
2013-02-17 22:44:00,40.1,17.1,30.06,SE,127,0.0,1.0,39,0.00,,,0.00,meteohub,2013-02-18 06:44:00,
2013-02-17 22:49:00,39.9,16.3,30.06,SE,127,0.0,0.0,38,0.00,,,0.00,meteohub,2013-02-18 06:49:00,
2013-02-17 22:54:00,39.9,16.3,30.06,South,170,0.0,0.0,38,0.00,,,0.00,meteohub,2013-02-18 06:54:00,
2013-02-17 22:59:00,40.1,15.3,30.06,SSE,167,0.0,0.0,36,0.00,,,0.00,meteohub,2013-02-18 06:59:00,
2013-02-17 23:04:00,40.3,14.7,30.06,ESE,110,0.0,0.0,35,0.00,,,0.00,meteohub,2013-02-18 07:04:00,
2013-02-17 23:09:00,40.5,15.6,30.06,ESE,110,0.0,0.0,36,0.00,,,0.00,meteohub,2013-02-18 07:09:00,
2013-02-17 23:14:00,40.1,14.7,30.06,ESE,111,0.0,0.0,35,0.00,,,0.00,meteohub,2013-02-18 07:14:00,
2013-02-17 23:19:00,40.1,14.0,30.06,ESE,110,0.0,0.0,34,0.00,,,0.00,meteohub,2013-02-18 07:19:00,
2013-02-17 23:24:00,40.6,13.8,30.06,ESE,111,0.0,0.0,33,0.00,,,0.00,meteohub,2013-02-18 07:24:00,
2013-02-17 23:29:00,40.5,14.4,30.06,ESE,112,0.0,0.0,34,0.00,,,0.00,meteohub,2013-02-18 07:29:00,
2013-02-17 23:34:00,40.1,14.0,30.06,ESE,112,0.0,0.0,34,0.00,,,0.00,meteohub,2013-02-18 07:34:00,
2013-02-17 23:39:00,40.1,14.0,30.06,SSW,201,0.0,0.0,34,0.00,,,0.00,meteohub,2013-02-18 07:39:00,
2013-02-17 23:45:00,39.9,13.8,30.06,SSW,201,0.0,0.0,34,0.00,,,0.00,meteohub,2013-02-18 07:45:00,
2013-02-17 23:50:00,39.9,13.8,30.06,SSW,200,0.0,0.0,34,0.00,,,0.00,meteohub,2013-02-18 07:50:00,
2013-02-17 23:55:00,39.9,13.8,30.06,SSW,200,0.0,0.0,34,0.00,,,0.00,meteohub,2013-02-18 07:55:00,